My Profile
  1. Member Settings
  2. My Devices
  3. Sign Out
        More Settings
      Elev 5869 ft, 30.967 °S 27.594 °E

      Barkly East, ZA

      Summary

      Temperature (°F)MaxAverageMin
      Max Temperature675844
      Avg Temperature53.8646.0936.29
      Min Temperature5236.2625
      Precipitation (in)MaxAverageMinSum
      Precipitation0000
      Dew Point (°F)MaxAverageMin
      Dew Point38.7529.0120.13
      Wind (mph)MaxAverageMin
      Wind2612.583
      Gust Wind3710.731
      Sea Level Pressure (in)MaxAverageMin
      Sea Level Pressure24.4924.3424.17

      Daily Observations

      DateTemp High/LowDew Pt High/LowHumidityWindMax WindWind GustPressurePrecip.Condition
      7/1/2022 57 °F / 33 °F 22 °F / 17 °F 42 % 15 mph - 24.41 in 0 in
      7/2/2022 56 °F / 33 °F 34 °F / 23 °F 53 % 18 mph - 24.34 in 0 in
      7/3/2022 63 °F / 49 °F 36 °F / 32 °F 48 % 18 mph - 24.32 in 0 in
      7/4/2022 63 °F / 45 °F 35 °F / 24 °F 44 % 17 mph - 24.38 in 0 in
      7/5/2022 63 °F / 41 °F 42 °F / 31 °F 51 % 16 mph - 24.33 in 0 in
      7/6/2022 59 °F / 39 °F 44 °F / 34 °F 76 % 6 mph - 24.32 in 0 in
      7/7/2022 62 °F / 33 °F 36 °F / 27 °F 63 % 3 mph - 24.39 in 0 in
      7/8/2022 51 °F / 30 °F 26 °F / 21 °F 61 % 3 mph - 24.45 in 0 in
      7/9/2022 63 °F / 32 °F 30 °F / 15 °F 39 % 12 mph - 24.33 in 0 in
      7/10/2022 58 °F / 35 °F 39 °F / 30 °F 61 % 16 mph - 24.2 in 0 in
      7/11/2022 49 °F / 33 °F 34 °F / 28 °F 74 % 12 mph - 24.29 in 0 in
      7/12/2022 59 °F / 29 °F 33 °F / 24 °F 64 % 3 mph - 24.4 in 0 in
      7/13/2022 58 °F / 37 °F 25 °F / 17 °F 38 % 22 mph - 24.35 in 0 in
      7/14/2022 56 °F / 36 °F 28 °F / 15 °F 46 % 10 mph - 24.35 in 0 in
      7/15/2022 63 °F / 30 °F 31 °F / 25 °F 57 % 6 mph - 24.44 in 0 in
      7/16/2022 62 °F / 32 °F 33 °F / 26 °F 58 % 3 mph - 24.49 in 0 in
      7/17/2022 67 °F / 35 °F 27 °F / 18 °F 44 % 10 mph - 24.45 in 0 in
      7/18/2022 61 °F / 38 °F 29 °F / 24 °F 43 % 10 mph - 24.37 in 0 in
      7/19/2022 59 °F / 42 °F 32 °F / 29 °F 48 % 20 mph - 24.32 in 0 in
      7/20/2022 61 °F / 39 °F 33 °F / 29 °F 46 % 13 mph - 24.32 in 0 in
      7/21/2022 60 °F / 39 °F 36 °F / 28 °F 47 % 16 mph - 24.39 in 0 in
      7/22/2022 62 °F / 36 °F 30 °F / 27 °F 48 % 18 mph - 24.37 in 0 in
      7/23/2022 59 °F / 42 °F 40 °F / 25 °F 52 % 17 mph - 24.23 in 0 in
      7/24/2022 44 °F / 31 °F 33 °F / 26 °F 78 % 10 mph - 24.33 in 0 in
      7/25/2022 57 °F / 25 °F 27 °F / 13 °F 59 % 7 mph - 24.36 in 0 in
      7/26/2022 57 °F / 29 °F 31 °F / 21 °F 53 % 9 mph - 24.32 in 0 in
      7/27/2022 46 °F / 40 °F 42 °F / 31 °F 80 % 9 mph - 24.3 in 0 in
      7/28/2022 59 °F / 41 °F 42 °F / 36 °F 69 % 17 mph - 24.27 in 0 in
      7/29/2022 57 °F / 52 °F 38 °F / 34 °F 52 % 26 mph - 24.19 in 0 in
      7/30/2022 57 °F / 38 °F 38 °F / 19 °F 57 % 15 mph - 24.17 in 0 in
      7/31/2022 50 °F / 30 °F 32 °F / 24 °F 68 % 13 mph - 24.28 in 0 in
      essentialaccessibility.com
      We recognize our responsibility to use data and technology for good. We may use or share your data with our data vendors. Take control of your data.
      Glossary